This demonstration page uses our WeatherBlox Daily Observations layout. Learn more.

Left ArrowRight Arrow

Hourly Observations for May 1, 2020

Temp ( °F °C ) Dew Point ( °F °C ) Humidity (%) Winds ( mph kmh ) Pressure ( in mb ) Visibility ( mi km ) Precip ( " mm )
12:15 am 00:15 Clear 63 17.1 44 6.8 51 51 S 14 22 29.73 1007 10 16.0934 0 0
12:35 am 00:35 Clear 63 17.1 45 7 52 52 SSE 14 22 29.73 1007 10 16.0934 0 0
12:55 am 00:55 Clear 62 16.7 45 7 53 53 SSE 15 24 29.73 1007 10 16.0934 0 0
1:15 am 01:15 Clear 62 16.5 45 7 54 54 S 14 22 29.73 1007 10 16.0934 0 0
1:35 am 01:35 Clear 62 16.5 45 7 54 54 S 12 19 29.73 1007 10 16.0934 0 0
1:55 am 01:55 Clear 61 16.3 45 7.2 55 55 S 13 20 29.72 1006 10 16.0934 0 0
2:15 am 02:15 Clear 61 16.3 45 7.3 55 55 S 12 19 29.72 1006 10 16.0934 0 0
2:35 am 02:35 Clear 60 15.8 45 7.2 57 57 S 10 17 29.72 1007 10 16.0934 0 0
2:55 am 02:55 Clear 60 15.5 46 7.5 59 59 S 10 17 29.72 1006 10 16.0934 0 0
3:15 am 03:15 Clear 61 16 45 7.2 56 56 S 10 17 29.73 1007 10 16.0934 0 0
3:35 am 03:35 Clear 62 16.7 45 7.2 54 54 WSW 14 22 29.77 1008 10 16.0934 0 0
3:55 am 03:55 Clear 61 15.9 45 7.4 57 57 Calm 29.76 1008 10 16.0934 0 0
4:15 am 04:15 Partly Cloudy 60 15.5 46 7.5 59 59 S 6 9 29.75 1007 10 16.0934 0 0
4:35 am 04:35 Clear 58 14.5 46 7.5 63 63 SSE 6 9 29.73 1007 10 16.0934 0 0
4:55 am 04:55 Clear 58 14.6 45 7.4 62 62 SSE 5 7 29.73 1007 10 16.0934 0 0
5:15 am 05:15 Clear 58 14.5 46 7.5 63 63 SSW 5 7 29.74 1007 10 16.0934 0 0
5:35 am 05:35 Clear 56 13.5 46 7.5 67 67 S 9 15 29.73 1007 10 16.0934 0 0
5:55 am 05:55 Clear 57 14 46 7.5 65 65 S 5 7 29.73 1007 10 16.0934 0 0
6:15 am 06:15 Clear 57 13.7 46 7.5 66 66 SSE 6 9 29.73 1007 10 16.0934 0 0
6:35 am 06:35 Clear 55 12.6 45 7.2 70 70 ESE 8 13 29.72 1006 10 16.0934 0 0
6:55 am 06:55 Sunny 56 13.1 46 7.5 69 69 SSE 8 13 29.73 1007 10 16.0934 0 0
7:15 am 07:15 Sunny 55 13 46 7.5 69 69 SSE 8 13 29.74 1007 10 16.0934 0 0
7:35 am 07:35 Sunny 56 13.6 46 7.7 68 68 SSW 9 15 29.74 1007 10 16.0934 0 0
7:55 am 07:55 Sunny 58 14.3 47 8.1 67 67 S 7 11 29.76 1008 10 16.0934 0 0
8:15 am 08:15 Sunny 59 15 46 8 63 63 S 6 9 29.75 1007 10 16.0934 0 0
8:35 am 08:35 Sunny 60 15.6 47 8.2 62 62 SSW 5 7 29.76 1008 10 16.0934 0 0
8:55 am 08:55 Sunny 62 16.4 47 8.4 59 59 SSW 7 11 29.75 1007 10 16.0934 0 0
9:15 am 09:15 Sunny 64 17.7 48 8.8 56 56 S 5 7 29.74 1007 10 16.0934 0 0
9:35 am 09:35 Sunny 65 18.3 47 8.5 53 53 SW 5 7 29.73 1007 10 16.0934 0 0
9:55 am 09:55 undefined 68 20 47 8.5 48 48 SSW 6 9 29.72 1006 10 16.0934 0 0
10:15 am 10:15 undefined 69 20.6 47 8.6 46 46 W 3 6 29.71 1006 10 16.0934 0 0
10:35 am 10:35 undefined 71 21.5 47 8.5 43 43 W 5 7 29.7 1006 10 16.0934 0 0
10:55 am 10:55 Sunny 75 24.1 47 8.1 36 36 NW 7 11 29.68 1005 10 16.0934 0 0
11:15 am 11:15 Sunny 77 25 47 8.4 35 35 NNW 7 11 29.69 1005 10 16.0934 0 0
11:35 am 11:35 Sunny 78 25.3 47 8.4 34 34 N 7 11 29.69 1005 10 16.0934 0 0
11:55 am 11:55 Sunny 79 26.2 48 8.7 33 33 N 5 7 29.68 1005 10 16.0934 0 0
12:15 pm 12:15 Sunny 80 26.8 48 8.8 32 32 N 6 9 29.68 1005 10 16.0934 0 0
12:35 pm 12:35 Sunny 81 27.3 48 8.7 31 31 NW 12 19 29.68 1005 10 16.0934 0 0
12:55 pm 12:55 Sunny 81 27.3 48 8.9 31 31 NNW 7 11 29.67 1005 10 16.0934 0 0
1:15 pm 13:15 Sunny 84 28.9 48 9 29 29 NNW 8 13 29.66 1004 10 16.0934 0 0
1:35 pm 13:35 Sunny 85 29.5 47 8.5 27 27 NNW 16 26 29.65 1004 10 16.0934 0 0
1:55 pm 13:55 Sunny 86 30 48 8.9 27 27 N 12 19 29.64 1004 10 16.0934 0 0
2:15 pm 14:15 Sunny 86 29.8 46 7.7 25 25 N 15 24 29.64 1004 10 16.0934 0 0
2:35 pm 14:35 Sunny 87 30.6 46 7.5 24 24 NNW 10 17 29.63 1004 10 16.0934 0 0
2:55 pm 14:55 Sunny 88 31 46 7.9 24 24 N 12 19 29.63 1003 10 16.0934 0 0
3:15 pm 15:15 Sunny 88 30.9 45 7.3 23 23 NNW 15 24 29.63 1003 10 16.0934 0 0
3:35 pm 15:35 Sunny 88 31 46 7.6 23 23 N 14 22 29.62 1003 10 16.0934 0 0
3:55 pm 15:55 Sunny 88 31 45 7.2 22 22 N 15 24 29.62 1003 10 16.0934 0 0
4:15 pm 16:15 Sunny 88 31 45 7.1 22 22 NNW 14 22 29.62 1003 10 16.0934 0 0
4:35 pm 16:35 Sunny 87 30.6 45 7.3 23 23 NNE 14 22 29.62 1003 10 16.0934 0 0
4:55 pm 16:55 Sunny 87 30.8 44 6.4 22 22 NNE 12 19 29.63 1003 10 16.0934 0 0
5:15 pm 17:15 Sunny 87 30.4 44 6.5 22 22 N 7 11 29.64 1004 10 16.0934 0 0
5:35 pm 17:35 Sunny 87 30.6 44 6.6 22 22 N 8 13 29.63 1004 10 16.0934 0 0
5:55 pm 17:55 Sunny 87 30.4 44 6.5 22 22 N 14 22 29.65 1004 10 16.0934 0 0
6:15 pm 18:15 Sunny 86 30.2 44 6.5 22 22 N 12 19 29.65 1004 10 16.0934 0 0
6:35 pm 18:35 Sunny 83 28.6 44 6.7 25 25 NNE 12 19 29.66 1004 10 16.0934 0 0
6:55 pm 18:55 Sunny 85 29.4 44 6.5 24 24 NNE 12 19 29.66 1005 10 16.0934 0 0
7:15 pm 19:15 Sunny 84 28.9 42 5.5 23 23 N 13 20 29.66 1004 10 16.0934 0 0
7:35 pm 19:35 Sunny 82 27.7 46 7.5 28 28 NNE 13 20 29.68 1005 10 16.0934 0 0
7:55 pm 19:55 Sunny 81 27 45 7.2 28 28 NNE 10 17 29.68 1005 10 16.0934 0 0
8:15 pm 20:15 Sunny 77 25.2 45 7.1 32 32 NE 8 13 29.7 1006 10 16.0934 0 0
8:35 pm 20:35 Clear 73 22.8 44 6.5 35 35 NNE 9 15 29.72 1007 10 16.0934 0 0
8:55 pm 20:55 Clear 71 21.4 43 6.2 37 37 NE 9 15 29.74 1007 10 16.0934 0 0
9:15 pm 21:15 Hazy 68 20.2 44 6.6 41 41 NE 9 15 29.76 1008 4 6.43736 0 0
9:35 pm 21:35 Hazy 67 19.7 44 6.6 43 43 NE 9 15 29.78 1008 5 8.0467 0 0
9:55 pm 21:55 Hazy 65 18.6 44 6.4 45 45 NE 10 17 29.8 1009 5 8.0467 0 0
10:15 pm 22:15 Hazy 64 17.8 44 6.8 49 49 NNE 9 15 29.83 1010 5 8.0467 0 0
10:35 pm 22:35 Clear 63 17 43 6.2 49 49 NNE 8 13 29.84 1011 10 16.0934 0 0
10:55 pm 22:55 Clear 62 16.8 44 6.6 51 51 NNE 10 17 29.85 1011 10 16.0934 0 0
11:15 pm 23:15 Clear 64 17.6 44 6.7 49 49 NNE 12 19 29.85 1011 10 16.0934 0 0
11:35 pm 23:35 Clear 64 17.6 45 7.3 51 51 NNE 12 19 29.86 1011 10 16.0934 0 0
11:55 pm 23:55 Clear 67 19.4 46 7.8 47 47 NNE 16 26 29.84 1011 10 16.0934 0 0

Powered by AerisWeather